Wind_Speed
14 15 14 14 14 13 12 11 11 12 12 12 12 12 11 10 10 10 10 10 9 8 8 8 7 7 7 8 8 8 8 8 8 8 9 9 9 10 10 9 10 9 10 9 9 9 9 9 8
15 15 15 15 15 12 11 12 12 12 12 11 12 12 11 10 10 9 9 10 9 8 7 7 6 6 7 7 7 8 8 8 8 8 8 9 9 9 9 9 9 9 10 9 9 9 8 8 7
14 15 14 15 14 12 12 12 12 12 12 12 12 12 12 11 10 9 9 9 9 8 7 7 6 6 6 6 6 7 7 7 8 7 7 8 9 9 9 9 9 9 9 9 8 8 8 7 6
13 13 14 14 13 13 12 12 12 12 12 12 12 13 12 11 10 9 9 9 8 8 7 7 7 6 6 6 6 6 7 7 7 7 7 8 8 8 8 9 8 8 8 8 8 8 7 7 6
13 13 14 13 12 12 13 12 12 12 13 12 12 13 12 11 10 10 10 9 8 7 8 7 7 7 6 6 6 7 8 7 7 7 8 8 8 8 9 9 8 8 7 7 7 8 7 7 6
12 13 12 11 12 12 13 13 12 12 13 12 12 13 12 12 11 10 10 9 8 8 8 8 8 7 7 7 7 7 7 7 7 8 8 8 8 8 8 8 8 7 7 7 7 7 7 7 6
11 11 11 11 11 12 12 13 13 13 13 13 12 12 12 12 11 10 10 9 9 9 8 8 8 8 7 8 8 8 8 7 8 8 8 8 8 8 7 7 7 7 7 7 7 7 7 6 5
10 10 10 10 11 11 12 12 13 13 13 13 12 12 12 12 11 11 10 9 9 9 9 8 8 8 8 9 9 9 8 8 8 8 8 7 7 7 7 6 6 7 6 7 6 6 6 5 5
9 9 8 9 10 11 11 12 13 13 13 13 13 13 12 12 11 11 10 10 10 9 9 9 9 8 8 9 9 9 9 9 8 8 8 7 7 6 6 6 6 6 6 5 6 6 6 4 4
8 8 8 8 10 10 11 12 13 13 13 13 13 13 13 12 12 11 11 11 10 10 9 10 10 9 9 9 9 9 9 9 8 8 7 7 7 6 5 5 5 5 5 5 5 5 4 3 3
7 7 8 8 9 10 10 11 12 12 13 13 13 13 13 12 12 12 11 11 11 10 10 10 9 9 9 9 9 9 9 9 9 8 7 7 6 6 5 5 4 4 4 4 4 4 3 3 3
6 7 8 8 9 9 10 10 11 12 12 12 13 12 13 13 12 12 12 11 11 10 10 10 10 10 10 10 10 10 9 9 9 8 7 6 6 5 5 5 4 5 4 4 3 3 2 2 1
5 6 7 7 8 9 10 10 11 12 12 12 12 12 12 12 12 12 11 11 11 11 10 10 10 10 9 9 10 10 9 9 8 8 7 6 5 5 5 5 5 4 4 3 3 2 1 1 1
4 4 5 6 6 8 9 9 10 11 11 11 11 11 12 11 11 11 11 10 10 10 10 9 9 9 9 10 9 9 9 9 8 7 6 6 5 5 4 3 3 3 3 3 2 1 1 1 1
3 3 4 5 5 7 7 8 9 9 9 10 10 11 11 10 10 10 10 10 9 10 10 10 10 9 9 9 9 8 8 8 8 8 7 6 5 4 3 3 2 2 2 1 1 1 1 0 1
2 2 2 3 3 5 6 7 7 8 9 9 9 10 10 9 9 9 9 9 9 9 9 10 10 10 10 9 9 9 9 8 9 9 7 6 5 5 4 3 2 2 1 1 1 1 1 1 1
3 3 2 2 2 3 4 5 5 6 7 8 9 9 9 9 8 8 8 9 9 9 8 9 9 9 9 9 9 9 9 9 8 8 7 6 6 5 5 4 3 3 2 1 1 0 1 1 2
6 4 3 2 2 2 3 4 4 5 6 7 7 8 8 8 7 7 7 8 8 8 8 8 8 8 8 8 8 9 8 8 7 7 6 6 6 6 5 4 4 3 2 1 1 1 1 1 2
8 6 5 4 2 2 2 3 3 3 4 5 6 6 7 7 7 7 7 8 7 7 7 7 7 7 7 7 7 7 7 7 7 7 6 6 6 5 5 5 5 4 3 2 1 2 2 2 3
10 8 6 5 4 3 2 1 1 1 2 3 4 5 6 6 6 6 6 6 7 7 7 7 7 7 7 6 6 6 6 6 6 6 6 6 6 5 4 4 4 4 3 3 2 2 3 3 4
11 10 8 7 5 4 3 2 1 1 1 1 2 3 4 4 5 5 5 5 5 5 5 6 6 6 6 6 6 6 6 5 6 6 6 5 5 5 4 4 4 4 4 4 3 3 3 4 5
13 12 11 9 7 6 5 4 4 3 2 1 1 1 2 2 3 4 4 4 4 4 4 4 5 6 6 6 5 5 5 5 5 4 4 4 5 5 4 5 4 4 4 4 4 5 5 5 6
15 14 13 12 10 9 8 7 6 5 4 2 2 2 2 2 2 2 3 3 3 3 3 3 4 4 5 5 5 4 4 5 4 4 5 5 4 4 6 6 5 5 5 6 6 6 6 6 7
18 16 15 13 11 11 11 9 8 7 5 4 3 3 3 3 3 2 2 3 3 2 2 2 2 3 4 4 4 4 4 5 5 4 5 6 5 5 6 6 6 6 6 6 7 7 8 8 8
20 18 15 14 14 13 12 11 10 9 7 6 5 4 3 4 4 3 4 3 3 3 2 2 1 2 3 3 4 5 5 5 5 5 6 6 7 6 7 7 7 7 7 7 7 8 8 9 9
22 20 19 16 14 13 14 12 11 10 9 8 7 6 6 5 4 4 5 4 4 4 3 3 3 3 3 3 4 5 5 6 5 5 6 7 7 7 7 7 8 8 8 8 9 9 9 10 10
23 22 20 18 16 15 15 13 12 11 10 9 8 7 7 6 6 7 6 5 6 5 5 5 4 5 4 4 5 5 5 6 6 6 6 7 7 7 8 9 9 9 9 9 9 10 10 11 11
26 24 22 21 19 17 16 15 14 12 11 10 9 9 8 8 8 8 7 7 7 7 7 6 6 6 6 6 6 6 6 6 7 7 7 7 8 9 10 10 10 10 10 10 11 11 12 12 12
28 27 25 23 22 19 17 16 15 14 12 11 10 10 10 9 9 9 9 9 9 9 8 8 8 8 8 8 8 8 8 8 8 7 8 8 9 10 10 10 11 11 11 11 11 12 12 13 13
29 28 26 25 24 22 19 17 17 15 14 13 12 12 12 11 11 11 11 11 11 11 10 10 10 11 10 10 10 10 10 10 9 9 9 9 10 11 11 12 12 12 12 13 12 13 13 13 14
Wind_Direction
65 65 65 66 66 66 73 76 79 80 81 80 79 77 79 80 82 82 78 73 79 85 83 87 90 93 99 102 102 104 102 101 100 99 103 108 113 114 114 124 126 123 128 130 135 139 137 138 139
67 66 66 66 67 69 71 73 78 78 79 79 78 75 75 77 82 81 78 74 77 81 80 84 87 90 97 101 104 107 105 105 104 102 104 108 115 120 122 123 124 126 128 131 138 140 140 143 143
68 67 66 66 67 68 71 72 72 76 78 78 76 74 75 76 80 77 76 75 76 76 75 78 84 88 92 95 103 108 107 107 110 109 108 112 118 123 125 127 128 130 129 132 137 143 143 144 141
66 66 64 65 65 68 72 73 73 76 79 77 75 76 76 78 74 72 72 73 76 75 75 77 81 86 87 92 99 105 107 108 109 107 109 112 114 120 127 133 134 134 135 135 139 146 147 144 143
65 64 64 63 64 69 72 72 75 76 77 77 76 77 77 76 72 70 71 73 75 75 74 75 79 83 85 89 96 106 107 107 106 104 111 113 113 119 129 134 138 138 139 140 144 153 152 149 150
67 65 65 63 64 67 69 70 74 77 77 75 74 74 75 73 71 70 70 73 76 77 78 75 74 78 78 82 87 96 103 104 103 106 110 113 115 119 130 133 137 137 134 143 146 147 148 150 152
67 70 68 65 67 69 70 72 75 77 74 72 71 72 72 71 70 70 72 76 79 79 80 76 71 73 77 84 89 88 90 99 107 110 109 110 114 116 123 129 132 137 139 146 146 146 146 153 154
70 71 68 68 71 74 73 73 72 72 70 69 70 71 70 70 69 68 72 78 80 81 78 73 68 69 77 83 88 87 88 94 103 111 112 112 113 116 112 119 130 143 143 143 148 150 152 151 152
73 71 69 71 74 78 77 74 72 70 70 69 71 72 71 70 68 69 72 76 79 80 79 75 73 74 78 83 84 82 85 94 102 109 112 109 111 113 110 116 125 136 140 146 153 158 159 155 154
75 75 74 73 78 81 80 76 72 70 71 71 71 70 70 69 68 69 71 74 77 78 77 75 76 78 80 84 83 83 84 90 99 106 109 110 110 109 110 115 125 129 138 149 158 158 165 170 172
77 78 77 77 79 81 82 78 72 71 70 70 70 70 68 67 68 70 71 74 75 76 75 75 78 79 81 83 83 85 84 85 94 102 106 110 111 107 107 114 127 126 134 143 150 153 168 186 192
75 81 80 80 83 82 82 79 72 70 70 69 70 71 70 69 69 71 73 75 75 74 74 75 77 79 79 81 82 83 83 81 84 91 100 104 108 104 105 115 120 124 122 127 143 150 158 162 178
76 81 80 83 84 82 81 80 74 73 69 68 69 69 70 68 69 71 73 75 74 73 73 74 75 77 78 81 82 84 86 84 82 82 87 93 99 102 109 110 112 120 114 118 130 142 154 184 222
83 81 80 82 85 85 82 80 78 75 69 68 66 68 68 67 68 69 71 72 73 72 69 70 77 79 78 80 80 82 82 81 82 82 84 88 95 99 104 110 108 105 112 116 127 148 182 220 244
106 86 78 83 85 88 83 81 80 75 71 69 67 67 68 66 66 65 66 67 69 68 66 69 75 79 79 79 77 77 79 80 79 78 83 89 90 94 102 116 111 99 109 105 113 100 72 328 318
154 110 95 94 95 94 88 82 82 79 71 67 65 64 67 65 66 67 66 65 66 67 67 67 72 74 75 77 76 74 73 74 76 75 77 79 79 85 94 99 89 77 84 88 79 93 40 357 332
180 156 147 130 120 104 87 84 84 81 72 65 60 59 63 64 65 66 66 65 66 67 68 67 71 71 73 73 73 72 73 73 72 72 72 71 73 75 69 68 66 61 57 37 21 271 280 314 313
199 187 182 170 146 121 96 87 86 82 73 62 57 57 61 64 65 64 63 66 68 67 66 68 66 71 70 68 69 71 72 73 72 71 71 72 72 68 64 61 59 54 39 19 2 341 329 320 308
208 202 197 193 177 161 125 97 82 77 66 59 55 55 57 59 61 64 65 65 69 69 67 66 61 63 63 65 64 64 65 65 66 66 67 71 68 68 63 52 43 34 23 19 26 14 352 337 323
212 213 213 216 209 195 188 145 102 60 41 49 50 51 51 53 59 63 65 65 64 69 70 67 57 51 51 57 57 52 58 59 57 53 59 61 62 58 49 44 38 26 18 7 353 351 343 335 330
213 216 219 222 219 216 221 232 252 307 344 40 50 46 43 45 52 55 56 61 62 65 67 64 52 45 41 44 50 52 52 51 51 56 59 55 49 52 49 40 27 25 18 7 353 341 330 325 325
219 219 219 224 229 237 240 249 260 272 283 313 10 21 19 26 40 52 52 50 51 55 58 54 48 46 43 42 47 51 46 40 46 51 50 40 33 32 24 18 11 7 6 358 343 334 328 323 322
222 223 225 230 234 239 244 246 255 258 261 265 278 317 337 344 6 33 36 32 34 37 46 43 45 49 40 38 38 35 33 28 28 25 22 17 13 10 4 0 358 355 356 353 346 335 329 326 321
221 225 228 232 236 241 241 243 249 252 257 260 267 287 310 316 317 327 343 356 6 8 15 24 31 22 25 27 21 19 17 15 12 3 357 357 354 353 353 353 350 348 347 346 344 338 327 320 318
222 224 229 235 238 242 242 243 242 244 251 255 262 271 289 300 304 318 318 317 327 327 327 330 341 336 349 359 1 2 359 355 358 356 352 350 347 347 346 344 343 340 334 331 331 330 328 323 317
224 225 224 229 237 245 245 244 243 243 245 250 255 261 269 281 295 303 307 302 296 298 301 303 298 304 320 328 333 338 342 341 340 340 346 348 344 338 334 332 331 331 328 328 328 327 327 324 321
227 227 228 231 235 238 248 246 242 239 241 246 251 259 265 270 286 290 292 291 292 289 288 291 285 285 292 300 312 320 325 329 330 332 337 340 342 337 330 328 327 325 324 325 327 325 324 323 321
227 229 228 228 231 238 247 248 243 238 240 246 250 258 262 269 280 283 281 283 290 288 283 283 282 280 281 288 296 302 312 316 314 319 326 328 330 330 328 325 326 325 323 321 322 323 324 324 322
228 228 229 231 233 234 242 248 244 241 240 243 248 253 259 264 269 275 276 278 283 286 280 281 280 279 280 283 289 295 300 304 308 311 312 316 320 321 322 323 324 323 320 316 316 317 321 323 321
229 230 231 232 236 234 237 245 247 245 242 244 247 250 255 261 267 272 276 276 279 282 282 279 278 278 277 281 287 291 294 296 299 302 304 307 312 314 313 315 316 317 316 316 314 314 316 319 321
Height
5895 5894 5893 5894 5893 5893 5891 5890 5888 5887 5886 5885 5884 5883 5883 5882 5883 5884 5881 5879 5878 5877 5877 5876 5876 5876 5876 5876 5876 5875 5875 5875 5875 5875 5875 5875 5876 5876 5875 5876 5877 5878 5879 5880 5881 5882 5883 5884 5885
5897 5896 5896 5896 5895 5894 5893 5891 5890 5889 5888 5886 5885 5885 5884 5883 5883 5882 5881 5880 5879 5879 5878 5877 5877 5877 5877 5877 5876 5876 5876 5876 5876 5876 5876 5876 5877 5877 5877 5877 5879 5879 5880 5881 5882 5883 5884 5885 5886
5899 5898 5899 5898 5897 5896 5895 5893 5891 5890 5889 5888 5887 5886 5885 5884 5884 5883 5882 5881 5881 5880 5879 5879 5878 5878 5878 5877 5877 5877 5877 5877 5877 5877 5877 5877 5878 5878 5878 5879 5880 5881 5882 5883 5883 5884 5885 5886 5886
5901 5901 5901 5900 5898 5898 5896 5894 5893 5891 5890 5889 5889 5888 5886 5886 5885 5884 5883 5883 5882 5881 5881 5880 5880 5879 5879 5878 5878 5878 5878 5878 5878 5878 5878 5878 5879 5879 5879 5880 5881 5882 5883 5883 5884 5885 5886 5886 5887
5903 5903 5903 5901 5900 5899 5897 5896 5895 5893 5892 5891 5890 5889 5888 5887 5887 5886 5885 5884 5884 5883 5882 5882 5881 5880 5880 5880 5879 5879 5879 5879 5878 5878 5879 5879 5880 5880 5880 5881 5882 5883 5883 5884 5885 5886 5886 5887 5888
5906 5905 5905 5903 5902 5901 5899 5898 5896 5895 5894 5893 5892 5891 5890 5889 5888 5887 5886 5886 5885 5885 5884 5883 5882 5882 5881 5881 5880 5880 5880 5879 5879 5879 5880 5880 5881 5881 5881 5882 5883 5883 5884 5885 5886 5886 5887 5888 5888
5908 5907 5906 5905 5904 5902 5901 5900 5898 5897 5896 5895 5894 5893 5891 5890 5890 5889 5888 5887 5887 5886 5885 5885 5884 5883 5883 5882 5882 5881 5881 5880 5880 5880 5881 5881 5882 5882 5883 5883 5883 5884 5885 5886 5886 5887 5888 5888 5889
5909 5910 5908 5907 5905 5904 5903 5902 5900 5899 5898 5897 5895 5894 5893 5892 5891 5890 5889 5888 5888 5888 5887 5886 5886 5885 5884 5883 5883 5883 5882 5882 5882 5882 5882 5883 5883 5883 5883 5884 5884 5885 5886 5886 5887 5888 5888 5889 5889
5911 5912 5910 5909 5907 5906 5905 5904 5902 5901 5900 5898 5897 5896 5895 5894 5893 5892 5891 5890 5890 5889 5888 5888 5887 5886 5885 5885 5884 5884 5884 5883 5883 5883 5884 5884 5884 5884 5885 5885 5885 5886 5887 5887 5888 5888 5889 5889 5890
5913 5913 5911 5910 5908 5907 5906 5905 5904 5903 5902 5900 5899 5898 5897 5896 5895 5894 5893 5892 5892 5891 5890 5889 5889 5888 5887 5886 5886 5886 5885 5885 5885 5885 5885 5885 5885 5885 5886 5886 5886 5887 5887 5887 5888 5888 5889 5889 5890
5913 5913 5912 5910 5909 5909 5908 5907 5906 5905 5903 5902 5901 5900 5899 5898 5897 5896 5895 5894 5894 5893 5892 5891 5890 5890 5889 5888 5888 5887 5887 5886 5886 5886 5886 5886 5886 5886 5887 5887 5887 5887 5887 5888 5888 5889 5889 5889 5890
5914 5914 5913 5912 5911 5910 5910 5909 5908 5907 5906 5904 5903 5902 5901 5900 5899 5898 5897 5896 5896 5895 5894 5893 5892 5891 5891 5890 5890 5889 5888 5888 5888 5887 5887 5887 5887 5888 5888 5888 5888 5888 5888 5888 5889 5889 5889 5889 5890
5915 5915 5914 5914 5913 5912 5912 5911 5910 5909 5908 5906 5905 5904 5903 5902 5901 5900 5899 5898 5898 5897 5896 5895 5894 5893 5892 5892 5891 5891 5890 5890 5889 5889 5889 5889 5889 5889 5889 5888 5888 5888 5889 5889 5889 5889 5889 5889 5889
5916 5916 5915 5915 5914 5914 5913 5913 5912 5911 5910 5909 5907 5906 5905 5904 5903 5902 5901 5900 5899 5899 5898 5896 5895 5895 5894 5893 5893 5892 5891 5891 5891 5890 5890 5890 5890 5889 5890 5890 5889 5889 5889 5890 5890 5890 5890 5890 5889
5916 5917 5917 5916 5916 5915 5915 5915 5914 5913 5912 5911 5909 5908 5907 5906 5905 5904 5903 5902 5901 5900 5899 5898 5897 5896 5896 5895 5894 5893 5893 5892 5892 5891 5891 5890 5890 5890 5890 5890 5890 5890 5890 5890 5890 5890 5890 5889 5889
5916 5918 5918 5918 5917 5917 5918 5917 5915 5914 5913 5912 5911 5910 5909 5908 5907 5906 5905 5904 5903 5902 5901 5900 5899 5898 5897 5897 5896 5895 5894 5894 5893 5893 5892 5891 5891 5891 5891 5890 5890 5890 5890 5890 5890 5889 5889 5889 5889
5917 5918 5918 5918 5918 5917 5918 5917 5916 5915 5915 5914 5913 5912 5910 5909 5908 5908 5907 5905 5904 5903 5902 5901 5901 5900 5899 5899 5898 5897 5896 5895 5895 5894 5893 5893 5892 5891 5891 5891 5891 5890 5890 5890 5889 5889 5889 5889 5888
5918 5918 5918 5919 5918 5918 5918 5918 5917 5916 5916 5915 5914 5913 5912 5911 5910 5909 5908 5907 5906 5905 5904 5903 5902 5902 5901 5900 5899 5899 5898 5897 5896 5895 5894 5894 5893 5893 5892 5892 5891 5891 5890 5889 5889 5888 5888 5888 5888
5916 5917 5918 5918 5918 5918 5919 5919 5918 5917 5917 5916 5915 5915 5914 5913 5912 5911 5910 5908 5907 5906 5905 5904 5904 5903 5902 5901 5901 5900 5899 5898 5898 5897 5895 5894 5894 5893 5893 5892 5891 5891 5890 5889 5889 5888 5888 5887 5887
5915 5916 5917 5918 5918 5918 5919 5919 5919 5918 5917 5917 5916 5916 5915 5914 5913 5912 5911 5910 5909 5908 5907 5906 5905 5904 5903 5902 5902 5901 5900 5899 5898 5898 5897 5896 5895 5894 5893 5893 5892 5891 5890 5889 5889 5888 5888 5887 5886
5913 5915 5916 5917 5917 5918 5919 5919 5919 5918 5918 5917 5917 5916 5915 5914 5914 5913 5912 5911 5910 5909 5908 5907 5906 5905 5904 5903 5902 5902 5901 5900 5899 5898 5897 5896 5895 5894 5893 5892 5892 5891 5890 5889 5888 5888 5887 5886 5886
5911 5913 5914 5915 5917 5918 5919 5920 5919 5918 5918 5917 5917 5916 5915 5915 5914 5913 5912 5911 5911 5910 5909 5908 5907 5906 5905 5904 5903 5903 5902 5901 5900 5899 5898 5896 5895 5894 5893 5892 5892 5891 5890 5889 5888 5887 5886 5885 5884
5909 5910 5912 5913 5915 5917 5917 5918 5920 5917 5917 5917 5917 5916 5915 5915 5914 5914 5913 5912 5911 5910 5909 5909 5908 5907 5906 5905 5904 5903 5902 5901 5900 5899 5898 5897 5896 5895 5893 5892 5891 5890 5889 5888 5887 5886 5885 5884 5883
5905 5908 5909 5911 5913 5915 5915 5917 5918 5916 5916 5916 5916 5915 5915 5914 5914 5913 5913 5912 5911 5910 5909 5909 5908 5907 5906 5905 5904 5904 5903 5902 5901 5900 5899 5897 5896 5895 5894 5892 5891 5890 5889 5888 5886 5885 5884 5883 5882
5901 5905 5908 5910 5911 5913 5913 5914 5915 5915 5915 5915 5915 5914 5914 5914 5913 5913 5912 5912 5911 5910 5909 5909 5908 5907 5906 5905 5904 5903 5902 5901 5900 5899 5898 5897 5896 5894 5893 5892 5891 5889 5888 5887 5885 5884 5883 5881 5880
5897 5901 5905 5908 5910 5911 5910 5911 5913 5913 5913 5913 5913 5913 5913 5913 5912 5912 5911 5911 5910 5909 5909 5908 5907 5907 5906 5905 5904 5903 5902 5901 5900 5899 5897 5896 5895 5893 5892 5891 5890 5888 5887 5885 5884 5883 5881 5880 5878
5893 5896 5900 5904 5906 5908 5908 5908 5909 5909 5910 5911 5911 5911 5911 5911 5911 5911 5910 5909 5909 5908 5908 5907 5906 5906 5905 5904 5903 5902 5901 5900 5898 5897 5896 5895 5893 5892 5891 5889 5888 5887 5885 5884 5882 5881 5879 5878 5876
5888 5892 5895 5898 5900 5903 5905 5905 5907 5907 5908 5908 5909 5909 5909 5909 5909 5909 5908 5908 5908 5907 5906 5905 5905 5904 5904 5903 5902 5901 5900 5898 5897 5896 5895 5893 5892 5891 5889 5888 5886 5885 5883 5881 5880 5878 5877 5875 5874
5883 5886 5889 5893 5896 5899 5902 5905 5903 5904 5905 5906 5906 5906 5906 5907 5907 5907 5906 5906 5905 5905 5904 5903 5903 5902 5902 5901 5900 5899 5898 5897 5895 5894 5893 5891 5890 5889 5887 5886 5884 5882 5881 5879 5878 5876 5874 5873 5871
5876 5880 5884 5888 5890 5893 5897 5902 5899 5900 5901 5902 5903 5903 5904 5904 5904 5904 5904 5903 5903 5903 5902 5901 5901 5900 5899 5899 5898 5897 5896 5895 5894 5892 5891 5889 5888 5887 5885 5883 5882 5880 5878 5876 5875 5873 5872 5870 5868